www.pogodaiklimat.ru

Погода и климат >> Архив погоды >> Парагвай >> Посо Колорадо


ПОГОДА в Посо Колорадо

  • Прогноз погоды в Посо Колорадо
  • Монитор погоды в Посо Колорадо

АРХИВ ПОГОДЫ в Посо Колорадо

Время (UTC), дата Ветер
(напр.,м/с)
 
Видим.   Явления Облачность Т
(С)
Тd
(С)
f
(%)
Тe
(С)
Тes
(С)
Комфортность P
(гПа)
Po
(гПа)
Тmin
(С)
Tmax
(С)
R
(мм)
R24
(мм)
S
(см)
12 17.03 штиль 0 20 км 10/6 450 м
[Sc Ac As]
+22.4 +20.4 88 +29 +30 очень
душно
1008.9 997.5 +20.8 25
18 17.03 штиль 0 20 км {ливн. осадки} 10/8 600 м
[Cu Sc Ac As]
+27.0 +24.3 85 +38 +39 очень
душно
1006.8 995.8 0.4
21 17.03 С 2 20 км 8/5 800 м
[Cu Sc Ac und]
+29.0 +24.7 78 +41 +42 опасность
перегрева
1004.3 993.3
00 18.03 штиль 0 10 км слаб. дождь 10/8 600 м
[Cu Sc Ac As]
+25.6 +24.7 95 +36 +36 очень
душно
1005.8 994.6 +29.2 1
03 18.03 штиль 0 20 км {дождь} 8/3 750 м
[Cu Sc Ac und]
+23.4 +21.5 89 +32 +32 очень
душно
1006.3 995.5 0.0
06 18.03 штиль 0 20 км 10/10 600 м
[Sc]
+22.6 +20.4 87 +29 +29 очень
душно
1006.5 995.8
09 18.03 В 2 20 км {морось} 10/10 450 м
[Sc]
+22.4 +20.4 88 +29 +29 очень
душно
1008.6 997.2 0.2
12 18.03 штиль 0 2000 м слаб. морось {дождь} 10/10 210 м
[St]
+22.6 +21.9 96 +30 +30 очень
душно
1010.8 999.5 +21.4 5
15 18.03 З 2 20 км {морось} 9/9 300 м
[Sc]
+25.0 +23.3 90 +33 +35 очень
душно
1011.1 999.8 0.0
18 18.03 З 2 20 км 10/10 600 м
[Cu Sc]
+28.4 +13.6 40 +30 +30 жарко 1009.7 998.5 0.0
21 18.03 З 2 20 км 9/9 600 м
[Cu Sc]
+27.2 +24.2 84 +38 +38 очень
душно
1007.7 996.5
00 19.03 штиль 0 20 км 5/0
[Ac trans Ci fib]
+24.6 +22.4 88 +32 +32 очень
душно
1008.3 997.0 +28.5
03 19.03 штиль 0 20 км 4/0 2000 м
[Ac trans]
+22.4 +20.0 86 +29 +29 очень
душно
1000.3 998.2
06 19.03 штиль 0 20 км 3/0
[Ac trans]
+22.0 +20.2 90 +28 +28 душно 1008.7 998.5
09 19.03 штиль 0 20 км 9/0 2000 м
[Ac As]
+22.6 +20.4 87 +29 +29 очень
душно
1008.2 996.8
12 19.03 Ю 2 20 км 10/8 500 м
[Sc Ac As]
+23.8 +22.6 93 +31 +32 очень
душно
1009.5 998.2 +21.6 0.0
15 19.03 ЮВ 3 20 км {морось} 10/10 450 м
[Sc]
+25.8 +23.0 85 +34 +34 очень
душно
1009.9 998.7 0.2
18 19.03 ЮВ 4 20 км 9/9 750 м
[Sc]
+29.0 +23.3 71 +39 +40 очень
душно
1008.0 996.9
21 19.03 Ю 4 20 км 6/4 1000 м
[Cu med, cong Ci sp]
+30.6 +22.4 62 +40 +40 очень
душно
1005.8 994.8
00 20.03 Ю 3 20 км зарница 9/8 840 м
[Cb cap Ac As]
+26.0 +24.0 89 +36 +36 очень
душно
1007.9 996.7 +30.6
03 20.03 Ю 3 20 км зарница {гроза} 9/8 800 м
[Cb cap Ac As]
+25.8 +23.2 86 +35 +35 очень
душно
1009.0 997.8
06 20.03 Ю 4 10 км гроза, ливневой дождь 10/10 600 м
[Cb cap]
+25.6 +13.4 47 +28 +28 жарко 1008.7 997.5 1
09 20.03 Ю 4 5000 м слаб. дождь {гроза} 10/5 450 м
[Frnb As op]
+23.0 +22.8 99 +32 +32 очень
душно
1009.1 997.8 15
12 20.03 Ю 3 4000 м слаб. дождь 10/6 360 м
[Frnb As op]
+22.2 +21.9 98 +29 +30 очень
душно
1012.4 1001.0 +22.0 62
15 20.03 Ю 4 8000 м слаб. морось {дождь} 10/10 360 м
[St]
+22.4 +21.8 96 +30 +30 очень
душно
1013.1 1001.7 3
18 20.03 Ю 4 20 км {морось} 10/10 540 м
[Sc]
+25.6 +24.6 94 +36 +36 очень
душно
1012.2 1001.0 0.2
21 20.03 Ю 4 20 км 9/6 600 м
[Sc Ac As]
+28.0 +23.6 77 +38 +38 очень
душно
1010.2 999.0
00 21.03 Ю 2 20 км 5/0 2000 м
[Ac trans]
+25.6 +21.6 79 +33 +33 очень
душно
1010.8 999.6 +28.8
03 21.03 Ю 3 20 км 5/0 2000 м
[Ac trans]
+23.0 +19.9 83 +30 +30 очень
душно
1012.2 1000.9
06 21.03 Ю 3 20 км 5/0 2000 м
[Ac trans]
+22.0 +20.2 90 +28 +28 душно 1011.6 1000.3
09 21.03 ЮЗ 4 20 км 10/10 570 м
[St]
+19.0 +17.5 91 +20 +20 1013.8 1002.4
12 21.03 Ю 4 20 км 5/0 2000 м
[Ac trans Ci fib]
+20.4 +18.1 87 +24 +27 комфорт 1016.0 1004.6 +17.8 4
21 21.03 Ю 4 20 км 3/3 1050 м
[Cu hum]
+27.0 +17.5 56 +31 +32 душно 1013.2 1001.8
03 22.03 штиль 0 20 км ясно +20.8 +17.9 83 +24 +24 комфорт 1014.6 1003.1
06 22.03 штиль 0 20 км ясно +19.6 +17.1 85 +22 +22 комфорт 1014.0 1002.5
09 22.03 Ю 1 20 км ясно +18.2 +16.2 88 +20 +20 1014.5 1002.9
12 22.03 Ю 2 20 км ясно +19.6 +16.7 83 +22 +27 комфорт 1016.3 1004.8 +17.4
15 22.03 ЮВ 3 20 км ясно +26.4 +18.1 60 +31 +46 душно 1016.1 1004.8
18 22.03 В 2 20 км ясно +28.6 +20.1 60 +35 +48 очень
душно
1013.4 1002.2
21 22.03 Ю 1 20 км ясно +28.6 +20.1 60 +35 +36 очень
душно
1012.6 1001.4
00 23.03 Ю 1 20 км ясно +23.0 +18.2 74 +29 +29 очень
душно
1013.0 1001.6 +29.0
03 23.03 штиль 0 20 км ясно +21.4 +19.2 87 +26 +26 душно 1014.9 1003.4
06 23.03 штиль 0 20 км ясно +20.0 +18.4 91 +23 +23 комфорт 1014.1 1002.6
09 23.03 штиль 0 20 км ясно +19.0 +17.1 89 +20 +20 1014.5 1003.0
12 23.03 ЮВ 4 20 км ясно +22.6 +18.5 78 +28 +31 душно 1016.0 1004.6 +19.0
15 23.03 ЮВ 3 20 км ясно +28.6 +18.5 54 +33 +49 очень
душно
1015.7 1004.5
18 23.03 В 3 20 км ясно +31.0 +22.0 59 +40 +52 опасность
солнечного
удара
1013.0 1002.0
21 23.03 штиль 0 20 км ясно +31.2 +22.0 58 +40 +41 очень
душно
1010.5 1000.5

 

Местоположение метеостанции Посо Колорадо (Парагвай): широта -23.38 долгота -58.90 высота над уровнем моря 100 м.

В архиве по умолчанию представлена погода в Посо Колорадо за последнюю неделю. Архивные данные за месяц целиком и за предыдущие месяцы, начиная с января 2011 года, Вы можете получить, выбрав интересующий диапазон дат из раскрывающегося списка и нажав кнопку "Ввод!".


*Определитесь, кто Вы:
робот инопланетянин человек

Внимание! Время в таблицах - всемирное. Для получения местного времени необходимо прибавить поправку, которая равна -4 ч.

Смотрите также архив погоды в соседних городах и на ближайших метеорологических станциях:

Погода в Грал Бругуез (Парагвай) (154 км)
Погода в Пуэрто-Касадо (Парагвай) (162 км)
Погода в Консепсьоне (Парагвай) (163 км)
Погода в Сан-Педро (Парагвай) (200 км)
Погода в Лас-Ломитасе (Аргентина) (225 км)
Погода в Марискал-Эстигаре (Парагвай) (232 км)
Погода в Порто Муртиньо (Мату-Гросу-ду-Сул, Бразилия) (233 км)
Погода в Асунсьоне (Парагвай) (251 км)
Погода в Пратс-Гиле (Парагвай) (277 км)
Погода в Бела-Виста (Мату-Гросу-ду-Сул, Бразилия) (281 км)

Пояснения к столбцам:

Ветер - указаны скорость ветра в м/с - средняя за 10 мин, порывы в срок и между сроками (в фигурных скобках) и направление, откуда дует ветер: С - северный, СВ - северо-восточный, В - восточный, ЮВ - юго-восточный, Ю - южный, ЮЗ - юго-западный, З - западный, СЗ - северо-западный.
Видимость - горизонтальная дальность видимости в метрах или километрах. При видимости от 1 до 10 км при отсутствии осадков обычно наблюдается дымка, при ухудшении видимости до 1 км и менее - туман. В сухую погоду видимость может ухудшаться дымом, пылью или мглою.
Явления - указаны атмосферные явления, наблюдавшиеся в срок или в последний час перед сроком; фигурными скобками обозначены явления, наблюдавшиеся между сроками (за 1-3 часа до срока); квадратными скобками обозначены град или гололедные отложения с указанием их диаметра в мм.
Облачность - указаны через наклонную черту общая и нижняя облачность в баллах и высота нижней границы облаков в метрах; квадратными скобками обозначены формы облаков: Ci - перистые, Cs - перисто-слоистые, Cc - перисто-кучевые, Ac - высококучевые, As - высокослоистые, Sc - слоисто-кучевые, Ns - слоисто-дождевые, Cu - кучевые, Cb - кучево-дождевые. Подробнее классификацию облаков см. в Атласе облаков (PDF).
T - Температура воздуха - температура, измеренная на высоте 2 м над землей.
Td - Температура точки росы - температура, при понижении до которой содержащийся в воздухе водяной пар достигнет насыщения.
f - Относительная влажность воздуха - влажноcть воздуха, измеренная на высоте 2 м над землей.
Te - Эффективная температура - температура, которую ощущает одетый по сезону человек в тени. Характеристика душности погоды. При расчете учитывается влияние влажности воздуха и скорости ветра на теплоощущения человека.
Tes - Эффективная температура на солнце - температура, которую ощущает человек, с поправкой на солнечный нагрев. Характеристика знойности погоды. Зависит от высоты солнца над горизонтом, облачности и скорости ветра. Ночью, в пасмурную погоду, а также при ветре 12 м/с и более поправка равна нулю.
P - Атмосферное давление - приведенное к уровню моря атмосферное давление.
Po - Атмосферное давление - измеренное на уровне метеостанции атмосферное давление.
Tmin - Минимальная температура - минимум температуры воздуха на высоте 2 м над землей.
Tmax - Максимальная температура - максимум температуры воздуха на высоте 2 м над землей.
R - Количество осадков - Количество выпавших осадков за период времени, мм. При наведении курсора мыши на число - период времени, за который выпало указанное количество осадков.
R24 - Количество осадков - Количество выпавших осадков за 24 часа, мм.
S - Снежный покров - Высота снежного покрова, см. При наведении курсора мыши на число - состояние снежного покрова и степень покрытия местности в баллах.